www.pogodaiklimat.ru

Погода и климат >> Архив погоды >> Россия >> Якутия >> Охотский Перевоз


ПОГОДА в Охотском Перевозе

  • Прогноз погоды в Охотском Перевозе
  • Монитор погоды в Охотском Перевозе
  • Климат города

АРХИВ ПОГОДЫ в Охотском Перевозе

Время (UTC), дата Ветер
(напр.,м/с)
 
Видим.   Явления Облачность Т
(С)
Тd
(С)
f
(%)
Тe
(С)
Тes
(С)
Комфортность P
(гПа)
Po
(гПа)
Тmin
(С)
Tmax
(С)
R
(мм)
S
(см)
03 16.03 ЮВ 2 50 км 5/3 600 м
[Cu hum As trans Ci fib]
-4.6 -5.5 93 -9 -6 1021.7 1003.5
06 16.03 Ю 3 50 км 8/8 600 м
[Cu med, cong]
-3.1 -7.3 73 -8 -8 1020.7 1002.6
09 16.03 ЮЗ 1 20 км 3/0
[Ci fib]
-2.8 -7.7 69 -5 -5 1019.9 1001.9 -1.8 0.0
12 16.03 ЮЗ 2 10 км 3/0
[Ci fib]
-7.3 -9.8 82 -12 -12 1020.4 1002.1
15 16.03 ЮЗ 3 10 км 5/0
[Ci fib]
-9.8 -11.0 91 -16 -16 1021.0 1002.5
18 16.03 Ю 1 10 км 8/0
[Ac trans Ci fib]
-16.7 -16.7 100 -19 -19 1021.7 1002.6
21 16.03 Ю 1 10 км 4/0
[Ac trans Ci fib]
-19.3 -19.3 100 -22 -22 1022.0 1002.8 -20.1 41
00 17.03 ЮЗ 1 20 км 9/0
[As trans Ci fib]
-18.8 -19.4 95 -22 -20 1021.7 1002.5 -21.4
03 17.03 Ю 3 20 км 4/0
[Ac As Ci fib]
-5.3 -9.0 75 -11 -8 1020.5 1002.4
06 17.03 ЮЗ 3 20 км 9/0
[As trans Cs]
+1.0 -7.7 52 -3 -1 1019.4 1001.7
09 17.03 СЗ 2 20 км 9/0
[As trans Cs]
+0.7 -7.0 56 -2 -2 1020.4 1002.6 +1.6
12 17.03 С 1 10 км 10/0
[As op]
-3.1 -5.8 82 -5 -5 1023.3 1005.2
15 17.03 штиль 0 10 км {снег} 4/0
[Cs]
-6.3 -6.4 99 -7 -7 1025.0 1006.8
18 17.03 штиль 0 10 км {снег} 8/0
[As trans Ci fib]
-13.0 -13.0 100 -13 -13 1026.5 1007.6
21 17.03 штиль 0 1000 м переохл. туман ясно -15.2 -15.2 100 -15 -15 1027.5 1008.5 -15.4 0.3 41
00 18.03 ЮВ 1 20 км в посл. час туман 4/0
[Ac trans]
-16.0 -16.0 100 -19 -16 1028.9 1009.8 -18.2
03 18.03 ЮВ 1 20 км ясно -7.6 -10.7 78 -10 -4 1029.8 1011.4
06 18.03 СВ 2 20 км 8/8 600 м
[Cu med, cong]
-5.3 -11.8 60 -9 -9 1029.6 1011.3
09 18.03 СВ 1 20 км 3/3 600 м
[Cu hum]
-5.7 -12.9 57 -8 -8 1029.9 1011.6 -4.2
12 18.03 штиль 0 10 км ясно -12.9 -17.2 70 -13 -13 1030.9 1012.0
15 18.03 штиль 0 10 км ясно -20.3 -20.9 95 -20 -20 1031.7 1012.3
18 18.03 штиль 0 10 км ясно -24.6 -25.3 94 -25 -25 1032.0 1012.2
21 18.03 штиль 0 10 км ясно -27.0 -27.6 95 -27 -27 1032.3 1012.4 -27.0 41
00 19.03 Ю 2 20 км 9/0
[Ac und]
-22.5 -23.1 95 -29 -28 1032.0 1012.4 -27.4
03 19.03 Ю 3 20 км 5/3 600 м
[Cb calv Ci fib]
-14.1 -16.1 85 -21 -18 1030.5 1011.6
06 19.03 Ю 2 20 км 9/9 600 м
[Cb calv Ci fib]
-7.2 -11.5 71 -11 -11 1028.1 1009.7
09 19.03 штиль 0 20 км 9/8 600 м
[Cb calv Ac trans Ci sp]
-7.8 -11.8 73 -8 -8 1027.7 1009.2 -5.6
12 19.03 штиль 0 10 км ясно -14.1 -15.4 90 -14 -14 1028.0 1009.1
15 19.03 штиль 0 10 км ясно -20.0 -20.0 100 -20 -20 1028.0 1008.6
18 19.03 штиль 0 10 км 4/0
[Ci fib]
-22.1 -22.2 99 -22 -22 1028.0 1008.4
21 19.03 штиль 0 10 км 4/0
[Ci fib]
-24.3 -24.3 100 -24 -24 1027.6 1007.9 -24.4 41
00 20.03 Ю 1 20 км 3/0
[As trans]
-24.7 -25.3 95 -28 -26 1027.7 1007.9 -26.8
03 20.03 С 1 50 км 1/1 600 м
[Cu hum]
-16.6 -17.9 90 -19 -14 1025.6 1006.6
06 20.03 С 2 50 км 3/1 600 м
[Cu med, cong Ac trans]
-9.1 -12.0 79 -14 -12 1023.9 1005.4
09 20.03 СВ 2 20 км 3/0
[Ci fib]
-5.8 -11.0 67 -10 -10 1023.0 1004.8 -4.8
12 20.03 С 1 10 км ясно -12.3 -14.3 85 -15 -15 1023.0 1004.3
15 20.03 штиль 0 10 км ясно -20.2 -20.2 100 -20 -20 1022.9 1003.6
18 20.03 штиль 0 10 км ясно -24.2 -24.2 100 -24 -24 1022.1 1002.5
21 20.03 штиль 0 10 км ясно -27.4 -28.0 95 -27 -27 1021.2 1001.5 -27.6 40
00 21.03 С 1 20 км 1/0
[Ac trans]
-27.4 -28.0 95 -31 -28 опасность
обморожения
1021.1 1001.4 -29.4
03 21.03 С 1 20 км ясно -17.5 -19.4 85 -20 -14 1019.8 1000.8
06 21.03 С 2 20 км 1/0
[Ci fib]
-7.5 -13.5 62 -12 -9 1018.4 1000.1
09 21.03 С 1 20 км ясно -7.2 -14.7 55 -9 -9 1018.6 1000.3 -6.3
12 21.03 Ю 1 10 км ясно -13.7 -18.0 70 -16 -16 1019.5 1000.8
15 21.03 штиль 0 10 км ясно -20.8 -22.0 90 -21 -21 1020.7 1001.4
18 21.03 штиль 0 10 км ясно -25.6 -26.3 94 -26 -26 1021.6 1002.0
21 21.03 штиль 0 10 км ясно -27.7 -28.3 95 -28 -28 1022.2 1002.4 -27.7 40
00 22.03 В 1 20 км ясно -26.2 -27.4 90 -30 -27 1022.8 1003.0 -28.8
03 22.03 Ю 4 50 км ясно -16.6 -19.2 80 -25 -21 1021.9 1002.8
06 22.03 Ю 3 50 км ясно -2.2 -11.8 48 -7 -4 1020.0 1002.1
09 22.03 ЮВ 2 20 км 8/0
[Ci fib]
-2.1 -11.6 48 -5 -5 1020.2 1002.3 -0.6
12 22.03 штиль 0 10 км 4/0
[Ci fib]
-9.3 -13.8 70 -10 -10 1021.7 1003.2
15 22.03 штиль 0 10 км ясно -16.6 -18.5 85 -17 -17 1022.9 1003.8
18 22.03 штиль 0 10 км 10/0
[Ci fib]
-21.1 -21.7 95 -21 -21 1023.4 1004.0
21 22.03 СЗ 1 10 км 3/0
[Ci fib]
-23.8 -24.4 95 -27 -27 1024.3 1004.7 -23.8 37

 

Местоположение метеостанции Охотский Перевоз (Якутия, Россия): широта 61.87 долгота 135.50 высота над уровнем моря 141 м.

В архиве по умолчанию представлена погода в Охотском Перевозе за последнюю неделю. Архивные данные за месяц целиком и за предыдущие месяцы, начиная с января 2011 года, Вы можете получить, выбрав интересующий диапазон дат из раскрывающегося списка и нажав кнопку "Ввод!".

Внимание! Время в таблицах - всемирное. Для получения местного времени необходимо прибавить поправку, которая в Охотском Перевозе равна 9 ч.

Смотрите также архив погоды в соседних городах и на ближайших метеорологических станциях:

Погода в Ытык-Кюёле (Якутия, Россия) (118 км)
Погода в Крест-Хальджае (Якутия, Россия) (120 км)
Погода в Теплом Ключе (Якутия, Россия) (121 км)
Погода в Чурапче (Якутия, Россия) (153 км)
Погода в Усть-Мае (Якутия, Россия) (179 км)
Погода в Амге (Якутия, Россия) (220 км)
Погода в Томпо (Якутия, Россия) (232 км)
Погода в Верхоянском Перевозе (Якутия, Россия) (241 км)
Погода в Восточной (Якутия, Россия) (259 км)
Погода в Югоренке (Якутия, Россия) (260 км)

Пояснения к столбцам:

Ветер - указаны скорость ветра в м/с - средняя за 10 мин, порывы в срок и между сроками (в фигурных скобках) и направление, откуда дует ветер: С - северный, СВ - северо-восточный, В - восточный, ЮВ - юго-восточный, Ю - южный, ЮЗ - юго-западный, З - западный, СЗ - северо-западный.
Видимость - горизонтальная дальность видимости в метрах или километрах. При видимости от 1 до 10 км при отсутствии осадков обычно наблюдается дымка, при ухудшении видимости до 1 км и менее - туман. В сухую погоду видимость может ухудшаться дымом, пылью или мглою.
Явления - указаны атмосферные явления, наблюдавшиеся в срок или в последний час перед сроком; фигурными скобками обозначены явления, наблюдавшиеся между сроками (за 1-3 часа до срока); квадратными скобками обозначены град или гололедные отложения с указанием их диаметра в мм.
Облачность - указаны через наклонную черту общая и нижняя облачность в баллах и высота нижней границы облаков в метрах; квадратными скобками обозначены формы облаков: Ci - перистые, Cs - перисто-слоистые, Cc - перисто-кучевые, Ac - высококучевые, As - высокослоистые, Sc - слоисто-кучевые, Ns - слоисто-дождевые, Cu - кучевые, Cb - кучево-дождевые. Подробнее классификацию облаков см. в Атласе облаков (PDF).
T - Температура воздуха - температура, измеренная на высоте 2 м над землей.
Td - Температура точки росы - температура, при понижении до которой содержащийся в воздухе водяной пар достигнет насыщения.
f - Относительная влажность воздуха - влажноcть воздуха, измеренная на высоте 2 м над землей.
Te - Эффективная температура - температура, которую ощущает одетый по сезону человек в тени. Характеристика душности погоды. При расчете учитывается влияние влажности воздуха и скорости ветра на теплоощущения человека.
Tes - Эффективная температура на солнце - температура, которую ощущает человек, с поправкой на солнечный нагрев. Характеристика знойности погоды. Зависит от высоты солнца над горизонтом, облачности и скорости ветра. Ночью, в пасмурную погоду, а также при ветре 12 м/с и более поправка равна нулю.
P - Атмосферное давление - приведенное к уровню моря атмосферное давление.
Po - Атмосферное давление - измеренное на уровне метеостанции атмосферное давление.
Tmin - Минимальная температура - минимум температуры воздуха на высоте 2 м над землей.
Tmax - Максимальная температура - максимум температуры воздуха на высоте 2 м над землей.
R - Количество осадков - Количество выпавших осадков, мм. При наведении курсора мыши на число - период времени, за который выпало указанное количество осадков.
S - Снежный покров - Высота снежного покрова, см. При наведении курсора мыши на число - состояние снежного покрова и степень покрытия местности в баллах.